CW9197 Juva FI current weather conditions

sailwx.info

Wind from 200 at 4 knots gusting 7

Air temperature -0.0° C
Dewpoint -0.0° C

Last reported at 2015-Mar-01 04:50 UTC.
Time now 2015-Mar-01 06:55 UTC

Location: N 61°53' E 027°53'.
View on Google Maps.

See reports from other nearby stations

  
Tides and Currents Weather Stations Pressure Air Temp Water Temp Dewpoint Dewpoint Depression Visibility Wind Speed Wind Dir Waves Ship Positions
date/time (UTC)wind fromknots sea level pressurealtimeterstation pressurevisibilityair tempwater tempwave heightnotes
2015-Mar-01 04:50 200 4 gusting 7 -0.0
2015-Mar-01 04:40 205 4 gusting 7 -0.0
2015-Mar-01 04:30 204 4 gusting 7 -0.0
2015-Mar-01 04:20 202 3 gusting 6 -0.0
2015-Mar-01 04:10 204 4 gusting 6 -0.0
2015-Mar-01 04:00 200 3 gusting 6 -0.0
2015-Mar-01 03:50 205 4 gusting 6 -0.0
2015-Mar-01 03:40 203 3 gusting 6 -0.6
2015-Mar-01 03:30 204 3 gusting 6 -0.6
2015-Mar-01 03:20 203 3 gusting 5 -0.6
2015-Mar-01 03:10 202 3 gusting 6 -0.6
2015-Mar-01 03:00 201 3 gusting 5 -0.6
2015-Mar-01 02:50 201 3 gusting 6 -0.6
2015-Mar-01 02:40 206 4 gusting 6 -0.6
2015-Mar-01 02:30 202 4 gusting 6 -0.6
2015-Mar-01 02:20 203 4 gusting 7 -0.6
2015-Mar-01 02:10 202 4 gusting 6 -0.6
2015-Mar-01 02:00 201 4 gusting 7 -0.6
2015-Mar-01 01:50 200 4 gusting 6 -0.6
2015-Mar-01 01:40 202 3 gusting 6 -0.6
2015-Mar-01 01:30 201 3 gusting 5 -0.6
2015-Mar-01 01:20 205 4 gusting 6 -0.6
2015-Mar-01 01:10 203 4 gusting 7 -0.6
2015-Mar-01 01:00 210 4 gusting 6 -0.6
2015-Mar-01 00:50 206 5 gusting 8 -0.6
2015-Mar-01 00:40 205 4 gusting 6 -0.6
2015-Mar-01 00:30 208 4 gusting 7 -0.6
2015-Mar-01 00:20 207 4 gusting 7 -0.6
2015-Mar-01 00:10 210 4 gusting 7 -0.6
2015-Mar-01 00:00 201 4 gusting 6 -0.6
2015-Feb-28 23:50 204 4 gusting 6 -0.6
2015-Feb-28 23:40 203 3 gusting 7 -0.6
2015-Feb-28 23:30 202 4 gusting 6 -0.6
2015-Feb-28 23:20 205 4 gusting 6 -0.6
2015-Feb-28 23:10 203 4 gusting 7 -0.6
2015-Feb-28 23:00 205 3 gusting 6 -0.6
2015-Feb-28 22:50 204 3 gusting 5 -0.6
2015-Feb-28 22:40 205 3 gusting 5 -0.6
2015-Feb-28 22:30 208 3 gusting 6 -0.6
2015-Feb-28 22:20 208 4 gusting 6 -0.6
2015-Feb-28 22:10 208 4 gusting 6 -1.1
2015-Feb-28 22:00 207 4 gusting 6 -1.1
2015-Feb-28 21:50 205 4 gusting 6 -1.1
2015-Feb-28 21:40 205 2 gusting 5 -1.1
2015-Feb-28 21:30 198 3 gusting 5 -1.1
2015-Feb-28 21:20 196 3 gusting 6 -1.1
2015-Feb-28 21:10 196 3 gusting 6 -1.1
2015-Feb-28 21:00 197 2 gusting 6 -1.1
2015-Feb-28 20:50 200 3 gusting 6 -1.1
2015-Feb-28 20:40 199 3 gusting 5 -1.1
2015-Feb-28 20:30 195 2 gusting 4 -1.1
2015-Feb-28 20:20 204 2 gusting 4 -1.1
2015-Feb-28 20:10 204 2 gusting 5 -1.1
2015-Feb-28 20:00 204 3 gusting 5 -1.1
2015-Feb-28 19:50 204 3 gusting 6 -1.1
2015-Feb-28 19:40 203 3 gusting 5 -1.1
2015-Feb-28 19:30 203 3 gusting 6 -1.1
2015-Feb-28 19:20 203 3 gusting 6 -1.1
2015-Feb-28 19:10 202 3 gusting 6 -1.1
2015-Feb-28 19:00 202 3 gusting 6 -1.1
2015-Feb-28 18:50 199 3 gusting 5 -1.1
2015-Feb-28 18:40 206 3 gusting 5 -1.1
2015-Feb-28 18:30 209 3 gusting 5 -1.1
2015-Feb-28 18:20 205 3 gusting 7 -1.1
2015-Feb-28 18:10 206 3 gusting 5 -1.1
2015-Feb-28 18:00 201 3 gusting 6 -1.1
2015-Feb-28 17:50 202 3 gusting 5 -1.1
2015-Feb-28 17:40 203 3 gusting 6 -1.1
2015-Feb-28 17:30 201 3 gusting 6 -1.1
2015-Feb-28 17:20 201 4 gusting 6 -1.1
2015-Feb-28 17:10 196 3 gusting 6 -1.1
2015-Feb-28 17:00 197 3 gusting 6 -1.1
2015-Feb-28 16:50 195 3 gusting 7 -1.1
2015-Feb-28 16:40 199 2 gusting 6 -1.1
2015-Feb-28 16:30 205 2 gusting 6 -1.1
2015-Feb-28 16:20 201 2 gusting 4 -1.1
2015-Feb-28 16:10 202 3 gusting 6 -1.1
2015-Feb-28 16:00 202 1 gusting 3 -1.1
2015-Feb-28 15:50 202 1 gusting 4 -1.1
2015-Feb-28 15:40 203 1 gusting 4 -1.1
2015-Feb-28 15:30 204 1 gusting 3 -1.1
2015-Feb-28 15:20 200 1 gusting 3 -1.1
2015-Feb-28 15:10 203 2 gusting 4 -1.1
2015-Feb-28 15:00 198 2 gusting 4 -1.1
2015-Feb-28 14:50 191 2 gusting 4 -1.1
2015-Feb-28 14:40 183 2 gusting 4 -1.1
2015-Feb-28 14:30 181 1 gusting 4 -1.1
2015-Feb-28 14:20 188 2 gusting 4 -1.1
2015-Feb-28 14:10 194 2 gusting 5 -1.1
2015-Feb-28 14:00 195 1 gusting 3 -1.1
2015-Feb-28 13:50 214 3 gusting 5 -1.1
2015-Feb-28 13:40 211 4 gusting 6 -1.1
2015-Feb-28 13:30 215 4 gusting 6 -1.1
2015-Feb-28 13:20 213 3 gusting 5 -0.6
2015-Feb-28 13:10 213 2 gusting 4 -0.6
2015-Feb-28 13:00 219 2 gusting 5 -0.6
2015-Feb-28 12:50 217 1 gusting 5 -0.6
2015-Feb-28 12:40 223 1 gusting 3 -0.6
2015-Feb-28 12:30 225 2 gusting 6 -0.6
2015-Feb-28 12:20 224 1 gusting 6 -0.6
2015-Feb-28 12:10 235 1 gusting 5 -0.6
2015-Feb-28 12:00 229 1 gusting 4 -0.6
2015-Feb-28 11:50 234 1 gusting 5 -0.6
2015-Feb-28 11:40 232 3 gusting 6 -0.6
2015-Feb-28 11:30 222 4 gusting 7 -0.6
2015-Feb-28 11:20 220 3 gusting 6 -0.0
2015-Feb-28 11:10 219 3 gusting 6 -0.0
2015-Feb-28 11:00 220 3 gusting 5 -0.0
2015-Feb-28 10:50 215 2 gusting 5 -0.0
2015-Feb-28 10:40 216 2 gusting 4 -0.0
2015-Feb-28 10:30 211 2 gusting 5 -0.0
2015-Feb-28 10:20 221 1 gusting 3 -0.0
2015-Feb-28 10:10 221 1 gusting 4 -0.0
2015-Feb-28 10:00 220 1 gusting 3 -0.0
2015-Feb-28 09:50 228 1 gusting 2 -0.0
2015-Feb-28 09:40 221 1 gusting 3 -0.0
2015-Feb-28 09:30 217 1 gusting 2 -0.0
2015-Feb-28 09:20 220 1 gusting 3 -0.6
2015-Feb-28 09:10 219 1 gusting 3 -0.6
2015-Feb-28 09:00 222 1 gusting 3 -0.6
2015-Feb-28 08:50 211 1 gusting 3 -1.1
2015-Feb-28 08:40 203 1 gusting 3 -1.1
2015-Feb-28 08:30 209 0 gusting 1 -1.1
2015-Feb-28 08:20 206 0 gusting 2 -1.1
2015-Feb-28 08:10 203 1 gusting 3 -1.1
2015-Feb-28 08:00 212 1 gusting 3 -1.1
2015-Feb-28 07:50 203 1 gusting 4 -1.1
2015-Feb-28 07:40 199 1 gusting 3 -1.1
2015-Feb-28 07:30 204 1 gusting 2 -1.1
2015-Feb-28 07:20 208 0 gusting 1 -1.1
2015-Feb-28 07:10 203 1 gusting 2 -1.1
2015-Feb-28 07:00 208 1 gusting 2 -1.1
2015-Feb-28 06:50 207 1 gusting 4 -1.7
2015-Feb-28 05:50 229 0 gusting 1 -1.7
2015-Feb-28 05:40 228 0 gusting 3 -1.7
2015-Feb-28 05:30 230 1 gusting 5 -1.7
2015-Feb-28 05:20 227 0 gusting 3 -1.7
2015-Feb-28 05:10 223 1 gusting 4 -1.7
2015-Feb-28 05:00 217 0 gusting 2 -1.7
2015-Feb-28 04:50 230 0 gusting 2 -1.7
2015-Feb-28 04:40 221 0 gusting 2 -1.7
2015-Feb-28 04:30 218 1 gusting 4 -1.7
2015-Feb-28 04:20 227 0 gusting 1 -1.1
2015-Feb-28 04:10 220 0 gusting 3 -1.7
2015-Feb-28 04:00 230 -1.1
2015-Feb-28 03:50 233 0 gusting 4 -1.1
2015-Feb-28 03:40 221 0 gusting 0 -1.1
2015-Feb-28 03:30 221 0 gusting 1 -1.1
2015-Feb-28 03:20 226 -1.1
2015-Feb-28 03:10 209 0 gusting 1 -1.1
2015-Feb-28 03:00 205 0 gusting 1 -1.1
2015-Feb-28 02:50 204 0 gusting 2 -1.1
2015-Feb-28 02:40 208 0 gusting 1 -1.7
2015-Feb-28 02:30 206 0 gusting 4 -1.7
2015-Feb-28 02:20 201 0 gusting 1 -1.7
2015-Feb-28 02:10 187 0 gusting 2 -1.7
2015-Feb-28 02:00 198 0 gusting 2 -1.1
2015-Feb-28 01:50 197 1 gusting 2 -1.7
2015-Feb-28 01:40 202 2 gusting 4 -1.1
2015-Feb-28 01:30 212 2 gusting 5 -1.1
2015-Feb-28 01:20 219 0 gusting 2 -1.1
2015-Feb-28 01:10 211 0 gusting 2 -1.1
2015-Feb-28 01:00 213 0 gusting 2 -1.1
2015-Feb-28 00:50 213 1 gusting 5 -1.1
2015-Feb-28 00:40 217 1 gusting 3 -1.1
2015-Feb-28 00:30 214 1 gusting 4 -1.1
2015-Feb-28 00:20 217 1 gusting 3 -1.1
2015-Feb-28 00:10 207 2 gusting 5 -1.1
2015-Feb-28 00:00 203 2 gusting 4 -1.1
2015-Feb-27 23:50 206 1 gusting 3 -1.1
2015-Feb-27 23:40 201 1 gusting 4 -1.1
2015-Feb-27 23:30 207 2 gusting 4 -1.1
2015-Feb-27 23:20 191 1 gusting 5 -1.1
2015-Feb-27 23:10 197 0 gusting 1 -1.1
2015-Feb-27 23:00 207 1 gusting 5 -1.1
2015-Feb-27 22:50 214 2 gusting 5 -1.1
2015-Feb-27 22:40 208 3 gusting 5 -1.1
2015-Feb-27 22:30 198 3 gusting 6 -1.1
2015-Feb-27 22:20 191 2 gusting 5 -1.1
2015-Feb-27 22:10 197 2 gusting 5 -1.1
2015-Feb-27 22:00 205 2 gusting 4 -1.1
2015-Feb-27 21:50 204 2 gusting 4 -1.1
2015-Feb-27 21:40 195 1 gusting 4 -1.1
2015-Feb-27 21:30 190 1 gusting 5 -1.1
2015-Feb-27 21:20 198 2 gusting 5 -1.1
2015-Feb-27 21:10 199 1 gusting 2 -1.1
2015-Feb-27 21:00 196 1 gusting 6 -1.1
2015-Feb-27 20:50 206 1 gusting 2 -1.1
2015-Feb-27 20:40 188 -1.1
2015-Feb-27 20:30 200 0 gusting 2 -1.1
2015-Feb-27 20:20 200 0 gusting 2 -1.1
2015-Feb-27 20:10 202 1 gusting 2 -1.1
2015-Feb-27 20:00 204 0 gusting 1 -1.1
2015-Feb-27 19:50 207 0 gusting 4 -1.1
2015-Feb-27 19:40 204 0 gusting 4 -1.1
2015-Feb-27 19:30 203 1 gusting 2 -1.1
2015-Feb-27 19:20 208 0 gusting 2 -1.1
2015-Feb-27 19:10 202 1 gusting 3 -1.1
2015-Feb-27 19:00 208 1 gusting 3 -1.1
2015-Feb-27 18:50 205 1 gusting 3 -1.1
2015-Feb-27 18:40 198 1 gusting 3 -1.1
2015-Feb-27 18:30 194 2 gusting 6 -1.1
2015-Feb-27 18:20 190 2 gusting 4 -1.1
2015-Feb-27 18:10 197 2 gusting 4 -1.1
2015-Feb-27 18:00 202 2 gusting 5 -1.1
2015-Feb-27 17:50 204 1 gusting 3 -1.1
2015-Feb-27 17:40 204 1 gusting 3 -1.1
2015-Feb-27 17:30 202 3 gusting 8 -1.1
2015-Feb-27 17:20 202 3 gusting 5 -1.1
2015-Feb-27 17:10 201 2 gusting 4 -1.1
2015-Feb-27 17:00 195 2 gusting 4 -1.1
2015-Feb-27 16:50 183 1 gusting 6 -1.1
2015-Feb-27 16:40 207 2 gusting 6 -1.1
2015-Feb-27 16:30 190 2 gusting 4 -1.1
2015-Feb-27 16:20 191 2 gusting 5 -1.1
2015-Feb-27 16:10 202 3 gusting 5 -1.1
2015-Feb-27 16:00 201 2 gusting 5 -0.6
2015-Feb-27 15:50 200 2 gusting 6 -1.1
2015-Feb-27 15:40 209 2 gusting 5 -0.6
2015-Feb-27 15:30 204 2 gusting 5 -0.6
2015-Feb-27 15:20 204 2 gusting 5 -1.1
2015-Feb-27 15:10 206 3 gusting 6 -1.1
2015-Feb-27 15:00 203 4 gusting 6 -1.1
2015-Feb-27 14:50 205 4 gusting 6 -0.6
2015-Feb-27 14:40 202 3 gusting 7 -0.6
2015-Feb-27 14:30 196 2 gusting 6 -0.6
2015-Feb-27 14:20 200 3 gusting 7 -0.6
2015-Feb-27 14:10 199 3 gusting 6 0.6
2015-Feb-27 14:00 200 2 gusting 5 1.1
2015-Feb-27 13:50 199 2 gusting 5 1.1
2015-Feb-27 13:40 198 3 gusting 5 1.1
2015-Feb-27 13:30 200 3 gusting 5 1.7
2015-Feb-27 13:20 200 2 gusting 6 1.7
2015-Feb-27 13:10 200 2 gusting 6 2.2
2015-Feb-27 13:00 194 3 gusting 6 2.2
2015-Feb-27 12:50 195 2 gusting 5 2.2
2015-Feb-27 12:40 191 2 gusting 5 2.2
2015-Feb-27 12:30 199 2 gusting 5 2.2
2015-Feb-27 12:20 205 3 gusting 6 2.2
2015-Feb-27 12:10 208 2 gusting 6 2.2
2015-Feb-27 12:00 211 4 gusting 7 2.2
2015-Feb-27 11:50 212 5 gusting 7 1.7
2015-Feb-27 11:40 205 3 gusting 6 2.2
2015-Feb-27 11:30 200 3 gusting 6 1.7
2015-Feb-27 11:20 209 4 gusting 6 1.7
2015-Feb-27 11:10 211 3 gusting 6 1.7
2015-Feb-27 11:00 216 3 gusting 6 2.2
2015-Feb-27 10:50 198 2 gusting 5 1.7
2015-Feb-27 10:40 204 2 gusting 5 1.7
2015-Feb-27 10:30 205 3 gusting 5 1.7
2015-Feb-27 10:20 203 4 gusting 6 1.7
2015-Feb-27 10:10 207 3 gusting 5 1.7
2015-Feb-27 10:00 209 3 gusting 5 1.7
2015-Feb-27 09:50 204 2 gusting 4 1.7
2015-Feb-27 09:40 198 2 gusting 6 1.7
2015-Feb-27 09:30 202 3 gusting 6 1.1
2015-Feb-27 09:20 196 2 gusting 4 1.1
2015-Feb-27 09:10 197 2 gusting 6 1.1
2015-Feb-27 09:00 200 2 gusting 4 0.6
2015-Feb-27 08:50 193 2 gusting 5 0.6
2015-Feb-27 08:40 195 2 gusting 6 0.6
2015-Feb-27 08:30 193 1 gusting 5 0.6
2015-Feb-27 08:20 199 2 gusting 3 0.6
2015-Feb-27 08:10 194 2 gusting 4 -0.0
2015-Feb-27 08:00 196 2 gusting 5 -0.0
2015-Feb-27 07:50 198 2 gusting 5 -0.0
2015-Feb-27 07:40 184 2 gusting 4 -0.0
2015-Feb-27 07:30 183 1 gusting 4 -0.0
2015-Feb-27 07:20 192 2 gusting 5 -0.6
2015-Feb-27 07:10 194 2 gusting 6 -0.6
2015-Feb-27 07:00 190 2 gusting 5 -0.6
2015-Feb-27 06:50 190 2 gusting 5 -0.6
2015-Feb-27 06:40 196 2 gusting 4 -0.6
2015-Feb-27 06:30 195 2 gusting 4 -0.6
2015-Feb-27 06:20 192 2 gusting 6 -0.6
2015-Feb-27 06:10 198 2 gusting 5 -0.6
2015-Feb-27 06:00 196 2 gusting 6 -0.6